Regional Weather Roundup
Issued by NWS

Home | Current Version | Previous Version | Graphics & Text | Print | Product List | Glossary On
Versions: 1 2 3 4 5 6 7 8 9 10 11 12 13 14 15 16 17 18 19 20 21 22 23 24 25 26 27 28 29 30 31 32 33 34 35 36 37 38 39 40 41 42 43 44 45 46 47 48 49 50
000
ASUS43 KFSD 031602
RWRSD

WEATHER ROUNDUP FOR SOUTH DAKOTA
NATIONAL WEATHER SERVICE SIOUX FALLS SD
1100 AM CDT THU SEP 03 2015

NOTE: "FAIR" INDICATES FEW OR NO CLOUDS BELOW 12,000 FEET WITH NO
SIGNIFICANT WEATHER AND/OR OBSTRUCTIONS TO VISIBILITY.


SDZ001>005-009-010-012>017-031700-
NORTHWEST AND NORTH CENTRAL SOUTH DAKOTA

CITY           SKY/WX    TMP DP  RH WIND       PRES   REMARKS
BUFFALO          N/A     82  44  26 W16       29.71R
MOBRIDGE       SUNNY     84  65  52 S10       29.70S
$$

SDZ012>016-024>037-041>051-057-063-072>074-031700-
SOUTHWEST AND SOUTH CENTRAL SOUTH DAKOTA

CITY           SKY/WX    TMP DP  RH WIND       PRES   REMARKS
RAPID CTY ARPT MOSUNNY   83  56  39 VRB5      29.80S
PIERRE         SUNNY     85  65  51 SE14      29.74R
CUSTER         PTSUNNY   80  42  25 W8        30.00S
ELLSWORTH AFB  MOSUNNY   86  54  33 S8        29.79R
PHILIP         SUNNY     91  60  35 SW9       29.74F
PINE RIDGE     MOSUNNY   84  52  33 VRB3      29.85F
WINNER         FAIR      93  60  33 SE10      29.79S
$$

SDZ004>011-016>023-039-040-031700-
NORTHEAST SOUTH DAKOTA

CITY           SKY/WX    TMP DP  RH WIND       PRES   REMARKS
ABERDEEN       SUNNY     82  72  71 S13       29.77R
WATERTOWN      SUNNY     81  70  69 S13       29.84R
BROOKINGS      SUNNY     79  70  73 S10       29.86S
$$

SDZ017-020-022-023-036>040-048>070-031700-
SOUTHEAST SOUTH DAKOTA

CITY           SKY/WX    TMP DP  RH WIND       PRES   REMARKS
SIOUX FALLS    SUNNY     78  70  76 SE8       29.84F
HURON          SUNNY     79  70  74 S12       29.79S
MITCHELL       SUNNY     80  71  74 S8        29.80S
YANKTON        SUNNY     79  70  73 SE8       29.81S
$$

ABBREVIATIONS USED IN REMARKS
   TC - TEMPERATURE IN CELSIUS
  WCI - WIND CHILL INDEX
   HX - HEAT INDEX
  VSB - VISIBILITY



USA.gov is the U.S. government's official web portal to all federal, state and local government web resources and services.